Flag for American Samoa Weather past 2 weeks in Pago Pago, American Samoa

Now
77 °F

Partly cloudy.


Feels Like: 79 °F
Forecast: 75 / 81 °F
Wind: 18 mph from Southeast

Location: Pago Pago / Int. Airp.

Current Time: Aug 27, 2014 at 6:19:52 AM

Latest Report: Aug 27, 2014 at 5:50 AM


Visibility: 10 mi

Pressure: 29.91 "Hg

Humidity: 79%

Dew point: 70 °F

Location of Pago PagoLocation

Historic Weather in Pago Pago — Graph

°F

Pago Pago temperature yesterday

Maximum temperature yesterday: 81 °F (at 10:51 AM)
Minimum temperature yesterday: 74 °F (at 12:50 AM)
Average temperature yesterday: 78 °F

Past Weeks' High & Low Weather Summary

 TemperatureHumidityPressure
High88 °F (Aug 15, 11:50 AM)95% (Aug 12, 4:53 AM)30.01 "Hg (Aug 12, 4:53 AM)
Low73 °F (Aug 19, 6:55 PM)66% (Aug 16, 4:54 PM)29.83 "Hg (Aug 15, 2:52 PM)
Average80 °F81%29.92 "Hg
* Reported Aug 12 3:55 AM — Aug 27 3:50 AM, Pago Pago, Weather by CustomWeather, © 2014

Note: Actual official high and low records may vary slightly from our data, if they occured in-between our weather recording intervals... More about our weather records

Advertising

Pago Pago weather history for previous 24 hours

 ConditionsComfort  
Time TempWeatherWind HumidityBarometerVisibility
3:50 AM
Aug 27
78 °FOvercast.22 mph78%29.90 "Hg10 mi
2:51 AM77 °FSprinkles. Overcast.21 mph83%29.90 "Hg10 mi
1:52 AM78 °FPartly cloudy.20 mph79%29.93 "Hg10 mi
12:53 AM75 °FPartly cloudy.20 mph89%29.94 "Hg10 mi
11:52 PM
Aug 26
75 °FPartly cloudy.23 mph87%29.96 "Hg10 mi
10:57 PM77 °FSprinkles. Overcast.24 mph85%29.96 "Hg10 mi
9:55 PM75 °FSprinkles. Overcast.21 mph86%29.95 "Hg10 mi
8:50 PM78 °FMostly cloudy.22 mph74%29.93 "Hg10 mi
7:51 PM77 °FMostly cloudy.24 mph77%29.93 "Hg10 mi
6:52 PM78 °FMostly cloudy.24 mph72%29.91 "Hg10 mi
5:52 PM78 °FLight rain. More clouds than sun.25 mph74%29.90 "Hg11 mi
4:53 PM79 °FCloudy.21 mph69%29.88 "Hg12 mi
3:58 PM79 °FMostly cloudy.22 mph69%29.88 "Hg12 mi
2:51 PM79 °FMostly cloudy.22 mph68%29.89 "Hg12 mi
1:51 PM80 °FPartly sunny.21 mph68%29.90 "Hg12 mi
12:50 PM80 °FScattered clouds.23 mph69%29.91 "Hg12 mi
11:50 AM81 °FScattered clouds.22 mph67%29.93 "Hg12 mi
10:51 AM81 °FScattered clouds.24 mph68%29.95 "Hg12 mi
9:51 AM79 °FPartly sunny.21 mph69%29.96 "Hg12 mi
8:59 AM79 °FPartly sunny.22 mph70%29.96 "Hg12 mi
7:52 AM77 °FLight rain. Partly sunny.24 mph73%29.95 "Hg12 mi
6:51 AM77 °FBroken clouds.20 mph74%29.93 "Hg11 mi
Weather by CustomWeather, © 2014

See weather overviewHow to use our weather pages